TimeCDT,TemperatureF,Dew PointF,Humidity,Sea Level PressureIn,VisibilityMPH,Wind Direction,Wind SpeedMPH,Gust SpeedMPH,PrecipitationIn,Events,Conditions,WindDirDegrees,DateUTC
12:15 AM,26.6,21.2,80,30.35,10.0,SW,4.6,-,N/A,,Clear,230,2012-10-12 05:15:00
12:34 AM,26.6,21.2,80,30.35,10.0,SW,4.6,-,N/A,,Clear,230,2012-10-12 05:34:00
12:54 AM,26.6,21.2,80,30.35,10.0,SW,5.8,-,N/A,,Clear,220,2012-10-12 05:54:00
1:15 AM,24.8,19.4,80,30.35,10.0,SSW,5.8,-,N/A,,Clear,210,2012-10-12 06:15:00
1:34 AM,21.2,17.6,86,30.35,10.0,South,5.8,-,N/A,,Clear,190,2012-10-12 06:34:00
1:54 AM,21.2,17.6,86,30.35,10.0,South,4.6,-,N/A,,Clear,180,2012-10-12 06:54:00
2:15 AM,23.0,17.6,80,30.35,10.0,South,4.6,-,N/A,,Clear,180,2012-10-12 07:15:00
2:34 AM,21.2,17.6,86,30.35,10.0,South,5.8,-,N/A,,Clear,190,2012-10-12 07:34:00
3:14 AM,21.2,15.8,80,30.34,10.0,SSW,5.8,-,N/A,,Clear,200,2012-10-12 08:14:00
3:34 AM,21.2,17.6,86,30.34,10.0,South,8.1,-,N/A,,Clear,190,2012-10-12 08:34:00
3:55 AM,21.2,17.6,86,30.33,10.0,South,6.9,-,N/A,,Clear,180,2012-10-12 08:55:00
4:14 AM,23.0,17.6,80,30.33,10.0,South,6.9,-,N/A,,Clear,190,2012-10-12 09:14:00
4:34 AM,24.8,19.4,80,30.32,10.0,South,8.1,-,N/A,,Clear,180,2012-10-12 09:34:00
4:55 AM,24.8,19.4,80,30.33,10.0,South,6.9,-,N/A,,Clear,190,2012-10-12 09:55:00
5:14 AM,26.6,21.2,80,30.33,10.0,South,8.1,-,N/A,,Clear,180,2012-10-12 10:14:00
5:35 AM,26.6,21.2,80,30.33,10.0,South,8.1,-,N/A,,Clear,190,2012-10-12 10:35:00
5:54 AM,24.8,19.4,80,30.32,10.0,South,8.1,-,N/A,,Clear,180,2012-10-12 10:54:00
6:14 AM,24.8,19.4,80,30.32,10.0,South,8.1,-,N/A,,Clear,180,2012-10-12 11:14:00
6:34 AM,24.8,19.4,80,30.32,10.0,South,5.8,-,N/A,,Clear,190,2012-10-12 11:34:00
6:54 AM,24.8,19.4,80,30.32,10.0,South,5.8,-,N/A,,Clear,180,2012-10-12 11:54:00
7:14 AM,24.8,19.4,80,30.31,10.0,South,6.9,-,N/A,,Clear,180,2012-10-12 12:14:00
7:34 AM,24.8,19.4,80,30.30,10.0,South,8.1,-,N/A,,Clear,180,2012-10-12 12:34:00
7:54 AM,24.8,19.4,80,30.30,10.0,South,8.1,-,N/A,,Clear,190,2012-10-12 12:54:00
8:14 AM,24.8,19.4,80,30.30,10.0,South,9.2,-,N/A,,Clear,180,2012-10-12 13:14:00
8:35 AM,26.6,21.2,80,30.30,10.0,South,9.2,-,N/A,,Clear,180,2012-10-12 13:35:00
8:54 AM,28.4,23.0,80,30.29,10.0,South,11.5,-,N/A,,Clear,180,2012-10-12 13:54:00
9:14 AM,30.2,24.8,80,30.28,10.0,South,10.4,-,N/A,,Clear,180,2012-10-12 14:14:00
9:35 AM,30.2,24.8,80,30.27,10.0,South,9.2,-,N/A,,Clear,180,2012-10-12 14:35:00
9:54 AM,33.8,26.6,75,30.27,10.0,South,10.4,-,N/A,,Clear,180,2012-10-12 14:54:00
10:14 AM,33.8,26.6,75,30.26,10.0,South,13.8,-,N/A,,Clear,190,2012-10-12 15:14:00
10:35 AM,35.6,26.6,70,30.25,10.0,South,16.1,19.6,N/A,,Clear,190,2012-10-12 15:35:00
10:54 AM,35.6,26.6,70,30.24,10.0,South,13.8,-,N/A,,Clear,180,2012-10-12 15:54:00
11:14 AM,37.4,26.6,65,30.22,10.0,South,17.3,23.0,N/A,,Scattered Clouds,190,2012-10-12 16:14:00
11:34 AM,37.4,26.6,65,30.21,10.0,South,19.6,-,N/A,,Mostly Cloudy,190,2012-10-12 16:34:00
11:55 AM,37.4,26.6,65,30.21,10.0,South,16.1,-,N/A,,Mostly Cloudy,190,2012-10-12 16:55:00
12:14 PM,39.2,26.6,61,30.20,10.0,South,13.8,-,N/A,,Mostly Cloudy,190,2012-10-12 17:14:00
12:35 PM,39.2,26.6,61,30.19,10.0,South,16.1,20.7,N/A,,Mostly Cloudy,190,2012-10-12 17:35:00
12:54 PM,39.2,26.6,61,30.18,10.0,South,15.0,-,N/A,,Mostly Cloudy,180,2012-10-12 17:54:00
1:34 PM,42.8,26.6,53,30.14,10.0,South,21.9,25.3,N/A,,Scattered Clouds,180,2012-10-12 18:34:00
1:54 PM,42.8,26.6,53,30.13,10.0,South,17.3,26.5,N/A,,Scattered Clouds,180,2012-10-12 18:54:00
2:14 PM,42.8,26.6,53,30.12,10.0,South,15.0,-,N/A,,Mostly Cloudy,180,2012-10-12 19:14:00
2:34 PM,42.8,26.6,53,30.11,10.0,South,19.6,-,N/A,,Scattered Clouds,190,2012-10-12 19:34:00
2:55 PM,42.8,26.6,53,30.08,10.0,South,19.6,-,N/A,,Scattered Clouds,180,2012-10-12 19:55:00
3:14 PM,42.8,26.6,53,30.06,10.0,South,19.6,27.6,N/A,,Scattered Clouds,170,2012-10-12 20:14:00
3:34 PM,44.6,26.6,49,30.05,10.0,South,23.0,-,N/A,,Scattered Clouds,180,2012-10-12 20:34:00
3:55 PM,44.6,24.8,46,30.04,10.0,South,20.7,26.5,N/A,,Scattered Clouds,180,2012-10-12 20:55:00
4:14 PM,44.6,24.8,46,30.02,10.0,South,23.0,27.6,N/A,,Scattered Clouds,170,2012-10-12 21:14:00
4:34 PM,46.4,24.8,43,30.00,10.0,South,21.9,27.6,N/A,,Scattered Clouds,170,2012-10-12 21:34:00
5:14 PM,46.4,24.8,43,29.98,10.0,South,18.4,25.3,N/A,,Clear,180,2012-10-12 22:14:00
5:54 PM,46.4,24.8,43,29.96,10.0,SSE,13.8,24.2,N/A,,Clear,160,2012-10-12 22:54:00
6:14 PM,44.6,23.0,43,29.95,10.0,South,15.0,-,N/A,,Clear,170,2012-10-12 23:14:00
6:34 PM,44.6,23.0,43,29.95,10.0,South,10.4,-,N/A,,Clear,170,2012-10-12 23:34:00
6:54 PM,41.0,24.8,53,29.94,10.0,SSE,8.1,-,N/A,,Clear,160,2012-10-12 23:54:00
7:14 PM,37.4,24.8,60,29.95,10.0,SE,4.6,-,N/A,,Clear,140,2012-10-13 00:14:00
7:34 PM,39.2,23.0,52,29.95,10.0,SE,4.6,-,N/A,,Clear,130,2012-10-13 00:34:00
7:55 PM,37.4,23.0,56,29.95,10.0,SE,4.6,-,N/A,,Clear,130,2012-10-13 00:55:00
8:14 PM,37.4,23.0,56,29.94,10.0,SE,6.9,-,N/A,,Clear,130,2012-10-13 01:14:00
8:34 PM,35.6,23.0,60,29.93,10.0,SE,9.2,-,N/A,,Clear,140,2012-10-13 01:34:00
9:14 PM,37.4,21.2,52,29.90,10.0,SE,6.9,-,N/A,,Clear,130,2012-10-13 02:14:00
9:35 PM,35.6,23.0,60,29.89,10.0,ESE,5.8,-,N/A,,Clear,120,2012-10-13 02:35:00
9:54 PM,33.8,23.0,65,29.89,10.0,ESE,4.6,-,N/A,,Clear,110,2012-10-13 02:54:00
10:14 PM,33.8,23.0,65,29.87,10.0,ESE,6.9,-,N/A,,Clear,120,2012-10-13 03:14:00
10:54 PM,37.4,21.2,52,29.85,10.0,SSE,10.4,-,N/A,,Clear,150,2012-10-13 03:54:00
11:35 PM,37.4,21.2,52,29.85,10.0,SSE,9.2,-,N/A,,Clear,150,2012-10-13 04:35:00
11:54 PM,37.4,21.2,52,29.84,10.0,SSE,8.1,-,N/A,,Clear,160,2012-10-13 04:54:00